CW1734 Weather Reports


time (UTC)temp
C
wind
direction
speed
KPH
gust
KPH
rain 1hr
cm
rain 24hr
cm
rain mn
cm
humidity
%
barometer
mb
20260508005403 10 89 0.0 0.0 0.00 0.00 0.00 88 1014.9
20260508004904 10 92 0.0 0.0 0.00 0.00 0.00 88 1014.9
20260508004403 10 93 0.0 4.8 0.00 0.00 0.00 88 1014.9
20260508003904 10 71 1.6 3.2 0.00 0.00 0.00 88 1014.9
20260508003404 10 73 1.6 4.8 0.00 0.00 0.00 88 1014.9
20260508002404 10 63 0.0 0.0 0.00 0.00 0.00 89 1014.9
20260508001904 10 63 0.0 0.0 0.00 0.00 0.00 88 1014.9
20260508001404 10 54 0.0 4.8 0.00 0.00 0.00 89 1014.9
20260508000904 10 101 0.0 0.0 0.00 0.00 0.00 89 1014.9
20260508000405 10 102 0.0 3.2 0.00 0.00 0.00 89 1015.0
20260507235904 10 102 1.6 4.8 0.00 0.00 0.00 89 1015.0
20260507235404 10 66 0.0 0.0 0.00 0.00 0.00 89 1015.1
20260507234904 9 73 0.0 0.0 0.00 0.00 0.00 89 1015.1
20260507234404 9 77 0.0 0.0 0.00 0.00 0.00 89 1015.1
20260507233904 9 77 0.0 0.0 0.00 0.00 0.00 89 1015.1
20260507233404 9 77 0.0 0.0 0.00 0.00 0.00 90 1015.2
20260507232904 9 77 0.0 0.0 0.00 0.00 0.00 90 1015.2
20260507231904 8 99 0.0 3.2 0.00 0.00 0.00 89 1015.5
20260507231404 8 100 0.0 3.2 0.00 0.00 0.00 89 1015.5
20260507230904 8 100 0.0 4.8 0.00 0.00 0.00 89 1015.5
20260507230403 8 98 0.0 0.0 0.00 0.00 0.00 89 1015.5
20260507224904 8 98 0.0 0.0 0.00 0.00 0.00 89 1015.5
20260507224404 8 99 0.0 0.0 0.00 0.00 0.00 89 1015.5
20260507223904 8 99 0.0 0.0 0.00 0.00 0.00 89 1015.5
20260507223405 8 99 0.0 0.0 0.00 0.00 0.00 88 1015.5
20260507222903 8 99 0.0 0.0 0.00 0.00 0.00 88 1015.5
20260507221904 8 98 0.0 0.0 0.00 0.00 0.00 88 1015.5
20260507220904 8 95 0.0 0.0 0.00 0.00 0.00 88 1015.5
20260507220403 8 95 0.0 0.0 0.00 0.00 0.00 87 1015.5
20260507215904 9 96 0.0 1.6 0.00 0.00 0.00 87 1015.5
20260507215404 9 96 1.6 4.8 0.00 0.00 0.00 87 1015.5
20260507214903 9 89 0.0 0.0 0.00 0.00 0.00 87 1015.5
20260507213904 9 87 0.0 0.0 0.00 0.00 0.00 87 1015.5
20260507213404 9 87 0.0 0.0 0.00 0.00 0.00 87 1015.5
20260507212905 9 77 0.0 3.2 0.00 0.00 0.00 87 1015.5
20260507212404 10 71 0.0 0.0 0.00 0.00 0.00 87 1015.5
20260507211404 10 69 1.6 4.8 0.00 0.00 0.00 87 1015.5
20260507210404 10 68 1.6 4.8 0.00 0.00 0.00 88 1015.5
20260507205904 10 94 0.0 0.0 0.00 0.00 0.00 88 1015.4
20260507205404 9 94 0.0 0.0 0.00 0.00 0.00 88 1015.4
20260507204903 9 93 1.6 4.8 0.00 0.00 0.00 88 1015.4
20260507204404 9 87 0.0 3.2 0.00 0.00 0.00 88 1015.2
20260507203404 9 84 3.2 8.0 0.00 0.00 0.00 88 1015.3
20260507202403 8 91 0.0 0.0 0.00 0.00 0.00 87 1015.3
20260507201904 9 91 0.0 0.0 0.00 0.00 0.00 86 1015.0
20260507201404 9 89 0.0 0.0 0.00 0.00 0.00 86 1015.0
20260507200904 9 89 0.0 0.0 0.00 0.00 0.00 86 1015.0
20260507195903 10 90 0.0 0.0 0.00 0.00 0.00 85 1015.0
20260507195404 10 90 0.0 0.0 0.00 0.00 0.00 85 1015.0
20260507194904 10 90 0.0 0.0 0.00 0.00 0.00 84 1015.0
20260507194404 10 91 0.0 0.0 0.00 0.00 0.00 83 1014.9
20260507193405 11 91 0.0 0.0 0.00 0.00 0.00 82 1014.9
20260507192903 11 91 0.0 0.0 0.00 0.00 0.00 82 1014.8
20260507192404 11 91 0.0 0.0 0.00 0.00 0.00 81 1014.8
20260507191904 11 90 0.0 1.6 0.00 0.00 0.00 80 1014.8
20260507191404 11 89 1.6 4.8 0.00 0.00 0.00 79 1014.7
20260507190904 11 106 1.6 4.8 0.00 0.00 0.00 79 1014.7
20260507190404 11 121 3.2 4.8 0.00 0.00 0.00 78 1014.7
20260507185904 12 115 4.8 8.0 0.00 0.00 0.00 77 1014.7
20260507184904 12 115 1.6 8.0 0.00 0.00 0.00 75 1014.7
20260507184404 12 120 3.2 9.7 0.00 0.00 0.00 75 1014.4
20260507183904 12 164 4.8 12.9 0.00 0.00 0.00 74 1014.4
20260507183403 12 102 1.6 4.8 0.00 0.00 0.00 74 1014.4
20260507182404 12 95 4.8 8.0 0.00 0.00 0.00 73 1014.4
20260507181904 12 112 1.6 8.0 0.00 0.00 0.00 73 1014.4
20260507181404 12 97 4.8 8.0 0.00 0.00 0.00 72 1014.4
20260507180404 13 104 4.8 9.7 0.00 0.00 0.00 70 1014.4
20260507175904 13 68 4.8 9.7 0.00 0.00 0.00 69 1014.4
20260507175404 13 129 6.4 11.3 0.00 0.00 0.00 68 1014.4
20260507174904 13 119 8.0 12.9 0.00 0.00 0.00 68 1014.4
20260507174404 13 156 1.6 8.0 0.00 0.00 0.00 69 1014.4
20260507173904 13 105 4.8 14.5 0.00 0.00 0.00 68 1014.4
20260507173404 13 68 6.4 12.9 0.00 0.00 0.00 68 1014.4
20260507172904 13 122 6.4 12.9 0.00 0.00 0.00 67 1014.5
20260507172404 13 76 4.8 11.3 0.00 0.00 0.00 67 1014.5
20260507171404 13 74 6.4 12.9 0.00 0.00 0.00 66 1014.5
20260507170904 13 94 8.0 12.9 0.00 0.00 0.00 66 1014.5
20260507165904 14 167 3.2 12.9 0.00 0.00 0.00 68 1014.6
20260507165404 14 108 6.4 11.3 0.00 0.00 0.00 66 1014.6
20260507164404 14 107 4.8 12.9 0.00 0.00 0.00 64 1014.6
20260507163404 15 103 8.0 14.5 0.00 0.00 0.00 62 1014.6
20260507162904 14 98 4.8 12.9 0.00 0.00 0.00 62 1014.6
20260507162404 15 96 6.4 11.3 0.00 0.00 0.00 59 1014.6
20260507161904 15 73 3.2 12.9 0.00 0.00 0.00 61 1014.5
20260507161404 15 79 6.4 11.3 0.00 0.00 0.00 59 1014.5
20260507160904 15 118 4.8 14.5 0.00 0.00 0.00 60 1014.7
20260507160403 15 71 4.8 11.3 0.00 0.00 0.00 60 1014.7
20260507155904 15 129 6.4 11.3 0.00 0.00 0.00 56 1014.7
20260507155404 15 81 4.8 14.5 0.00 0.00 0.00 57 1014.7
20260507154904 15 68 1.6 8.0 0.00 0.00 0.00 56 1014.7
20260507154404 15 116 6.4 12.9 0.00 0.00 0.00 57 1014.7
20260507153904 15 63 6.4 11.3 0.00 0.00 0.00 56 1014.8
20260507152404 15 98 8.0 14.5 0.00 0.00 0.00 54 1014.8
20260507151904 15 57 4.8 16.1 0.00 0.00 0.00 56 1014.8
20260507151403 15 137 3.2 11.3 0.00 0.00 0.00 56 1014.8
20260507150404 15 165 4.8 12.9 0.00 0.00 0.00 55 1014.8
20260507145904 15 91 6.4 12.9 0.00 0.00 0.00 57 1014.9
20260507145404 15 113 3.2 11.3 0.00 0.00 0.00 53 1014.9
20260507144903 15 129 6.4 12.9 0.00 0.00 0.00 54 1014.9
20260507144404 15 105 4.8 11.3 0.00 0.00 0.00 56 1014.9
20260507143903 15 102 3.2 12.9 0.00 0.00 0.00 56 1014.9
20260507143404 16 112 4.8 11.3 0.00 0.00 0.00 54 1014.9
20260507141904 16 149 6.4 12.9 0.00 0.00 0.00 51 1015.2
20260507135904 16 127 1.6 14.5 0.00 0.00 0.00 53 1015.2
20260507135403 16 128 8.0 11.3 0.00 0.00 0.00 53 1015.2
20260507134904 16 35 3.2 9.7 0.00 0.00 0.00 51 1015.2
20260507133903 16 109 3.2 12.9 0.00 0.00 0.00 53 1015.2
20260507133404 16 160 9.7 19.3 0.00 0.00 0.00 53 1015.2
20260507132904 15 126 8.0 12.9 0.00 0.00 0.00 52 1015.3
20260507132404 15 192 6.4 14.5 0.00 0.00 0.00 57 1015.3
20260507131905 16 52 4.8 14.5 0.00 0.00 0.00 58 1015.3
20260507131404 16 87 6.4 12.9 0.00 0.00 0.00 60 1015.3
20260507130904 15 160 4.8 14.5 0.00 0.00 0.00 60 1015.3
20260507130404 15 133 4.8 12.9 0.00 0.00 0.00 64 1015.3
20260507125404 15 87 4.8 14.5 0.00 0.00 0.00 62 1015.4
20260507124903 15 106 8.0 12.9 0.00 0.00 0.00 62 1015.4
20260507123903 13 109 4.8 12.9 0.00 0.00 0.00 66 1015.4
20260507123404 13 269 4.8 11.3 0.00 0.00 0.00 65 1015.4
20260507122904 13 144 4.8 11.3 0.00 0.00 0.00 65 1015.4
20260507122404 14 111 4.8 16.1 0.00 0.00 0.00 67 1015.4
20260507121903 14 144 3.2 9.7 0.00 0.00 0.00 66 1015.5
20260507121404 14 171 8.0 14.5 0.00 0.00 0.00 66 1015.6
20260507120903 14 111 3.2 12.9 0.00 0.00 0.00 66 1015.6
20260507120404 14 174 3.2 12.9 0.00 0.00 0.00 66 1015.6
20260507115404 14 118 8.0 12.9 0.00 0.00 0.00 65 1015.4
20260507114904 14 177 4.8 12.9 0.00 0.00 0.00 64 1015.4
20260507114404 15 93 6.4 12.9 0.00 0.00 0.00 66 1015.4
20260507113903 15 169 4.8 12.9 0.00 0.00 0.00 65 1015.4
20260507113404 15 72 6.4 14.5 0.00 0.00 0.00 65 1015.4
20260507112904 15 81 6.4 14.5 0.00 0.00 0.00 64 1015.4
20260507112404 14 122 4.8 19.3 0.00 0.00 0.00 70 1015.4
20260507111905 14 113 6.4 14.5 0.00 0.00 0.00 68 1015.4
20260507111403 14 94 4.8 19.3 0.00 0.00 0.00 67 1015.5
20260507110904 14 116 4.8 12.9 0.00 0.00 0.00 66 1015.5
20260507105904 14 113 4.8 19.3 0.00 0.00 0.00 68 1015.5
20260507105404 14 95 6.4 12.9 0.00 0.00 0.00 67 1015.5
20260507104904 15 103 6.4 12.9 0.00 0.00 0.00 66 1015.5
20260507104404 15 143 4.8 14.5 0.00 0.00 0.00 68 1015.6
20260507103904 13 151 4.8 9.7 0.00 0.00 0.00 68 1015.6
20260507103404 13 101 4.8 11.3 0.00 0.00 0.00 68 1015.6
20260507102904 14 80 9.7 19.3 0.00 0.00 0.00 68 1015.6
20260507102404 13 141 4.8 12.9 0.00 0.00 0.00 67 1015.6
20260507101903 13 127 8.0 16.1 0.00 0.00 0.00 68 1015.7
20260507101404 14 131 8.0 14.5 0.00 0.00 0.00 67 1015.7
20260507100904 14 132 9.7 22.5 0.00 0.00 0.00 68 1015.7
20260507100404 14 132 6.4 12.9 0.00 0.00 0.00 69 1015.7
20260507095404 15 183 4.8 11.3 0.00 0.00 0.00 67 1015.6
20260507094903 14 103 8.0 14.5 0.00 0.00 0.00 68 1015.6
20260507094405 15 103 6.4 14.5 0.00 0.00 0.00 67 1015.6
20260507093903 15 122 9.7 19.3 0.00 0.00 0.00 64 1015.6
20260507093404 15 66 9.7 16.1 0.00 0.00 0.00 67 1015.6
20260507092903 15 76 6.4 14.5 0.00 0.00 0.00 68 1015.6
20260507092403 15 38 6.4 11.3 0.00 0.00 0.00 69 1015.6
20260507091904 14 151 3.2 11.3 0.00 0.00 0.00 67 1015.6
20260507091403 14 56 6.4 14.5 0.00 0.00 0.00 66 1015.6
20260507090904 14 138 4.8 11.3 0.00 0.00 0.00 68 1015.6
20260507090404 14 95 4.8 11.3 0.00 0.00 0.00 67 1015.6
20260507085904 13 166 3.2 19.3 0.00 0.00 0.00 68 1015.6
20260507085404 13 116 6.4 19.3 0.00 0.00 0.00 72 1015.7
20260507084904 13 108 4.8 11.3 0.00 0.00 0.00 73 1015.7
20260507084404 13 96 3.2 11.3 0.00 0.00 0.00 72 1015.6
20260507083904 13 141 4.8 11.3 0.00 0.00 0.00 70 1015.6
20260507083404 14 125 4.8 9.7 0.00 0.00 0.00 73 1015.6
20260507082409 12 163 3.2 12.9 0.00 0.00 0.00 76 1015.6
20260507081404 12 104 8.0 12.9 0.00 0.00 0.00 75 1015.6
20260507080904 13 138 6.4 14.5 0.00 0.00 0.00 75 1015.4
20260507080403 13 182 3.2 11.3 0.00 0.00 0.00 77 1015.4
20260507075904 13 72 3.2 9.7 0.00 0.00 0.00 78 1015.4
20260507075404 12 49 3.2 12.9 0.00 0.00 0.00 79 1015.4
20260507074904 12 184 1.6 8.0 0.00 0.00 0.00 79 1015.4
20260507074404 12 48 8.0 14.5 0.00 0.00 0.00 80 1015.3
20260507073904 12 208 6.4 14.5 0.00 0.00 0.00 79 1015.3
20260507073403 12 137 8.0 12.9 0.00 0.00 0.00 81 1015.3
20260507072904 12 185 3.2 9.7 0.00 0.00 0.00 82 1015.2
20260507071904 11 89 8.0 11.3 0.00 0.00 0.00 83 1015.2
20260507071404 11 118 9.7 16.1 0.00 0.00 0.00 83 1015.2
20260507070903 11 74 3.2 20.9 0.00 0.00 0.00 85 1015.2
20260507065904 11 85 3.2 11.3 0.00 0.00 0.00 88 1015.2
20260507065403 10 54 3.2 11.3 0.00 0.00 0.00 89 1015.2
20260507064903 10 81 8.0 19.3 0.00 0.00 0.00 90 1015.2
20260507064404 10 51 8.0 12.9 0.00 0.00 0.00 90 1015.2
20260507063904 10 71 4.8 11.3 0.00 0.00 0.00 91 1015.2
20260507063404 9 87 1.6 9.7 0.00 0.00 0.00 92 1015.2
20260507062404 8 67 1.6 4.8 0.00 0.00 0.00 92 1015.2
20260507061904 8 29 0.0 8.0 0.00 0.00 0.00 93 1015.1
20260507061403 8 83 3.2 8.0 0.00 0.00 0.00 93 1015.0
20260507060904 7 74 0.0 4.8 0.00 0.00 0.00 93 1015.0
20260507055404 6 339 0.0 1.6 0.00 0.00 0.00 92 1015.0
20260507054904 5 339 0.0 0.0 0.00 0.00 0.00 92 1015.0
20260507054404 5 320 0.0 0.0 0.00 0.00 0.00 92 1015.0
20260507053904 5 320 0.0 0.0 0.00 0.00 0.00 92 1015.0
20260507053404 5 320 0.0 0.0 0.00 0.00 0.00 92 1015.0
20260507052404 5 301 0.0 0.0 0.00 0.00 0.00 92 1014.9
20260507051904 5 308 0.0 1.6 0.00 0.00 0.00 92 1014.9
20260507051404 4 295 0.0 0.0 0.00 0.00 0.00 92 1014.8
20260507050904 3 295 0.0 0.0 0.00 0.00 0.00 92 1014.8
20260507050404 3 295 0.0 1.6 0.00 0.00 0.00 92 1014.8
20260507045905 3 210 0.0 0.0 0.00 0.00 0.00 92 1014.8
20260507045404 3 210 0.0 1.6 0.00 0.00 0.00 92 1014.8
20260507044904 3 141 0.0 0.0 0.00 0.00 0.00 92 1014.8
20260507043904 3 141 0.0 0.0 0.00 0.00 0.00 91 1014.7
20260507043404 3 141 0.0 0.0 0.00 0.00 0.00 92 1014.7
20260507042903 3 141 0.0 0.0 0.00 0.00 0.00 92 1014.7
20260507041404 3 104 0.0 0.0 0.00 0.00 0.00 91 1014.7
20260507040904 3 79 0.0 0.0 0.00 0.00 0.00 91 1014.7
20260507035903 3 79 0.0 0.0 0.00 0.00 0.00 91 1014.7
20260507035403 3 79 0.0 0.0 0.00 0.00 0.00 91 1014.7
20260507034904 3 80 0.0 0.0 0.00 0.00 0.00 91 1014.7
20260507034404 3 80 0.0 0.0 0.00 0.00 0.00 91 1014.7
20260507033904 3 80 0.0 0.0 0.00 0.00 0.00 91 1014.6
20260507033404 3 80 0.0 0.0 0.00 0.00 0.00 91 1014.6
20260507032904 3 80 0.0 0.0 0.00 0.00 0.00 91 1014.6
20260507032404 3 80 0.0 0.0 0.00 0.00 0.00 91 1014.5
20260507031904 3 80 0.0 0.0 0.00 0.00 0.00 91 1014.5
20260507030904 3 80 0.0 0.0 0.00 0.00 0.00 90 1014.5
20260507025904 3 80 0.0 0.0 0.00 0.00 0.00 90 1014.6
20260507025404 3 80 0.0 0.0 0.00 0.00 0.00 90 1014.6
20260507024904 4 80 0.0 0.0 0.00 0.00 0.00 90 1014.4
20260507024403 4 80 0.0 0.0 0.00 0.00 0.00 90 1014.4
20260507023904 5 80 0.0 0.0 0.00 0.00 0.00 90 1014.4
20260507023404 5 80 0.0 0.0 0.00 0.00 0.00 91 1014.4
20260507022904 4 80 0.0 0.0 0.00 0.00 0.00 90 1014.4
20260507022404 4 80 0.0 0.0 0.00 0.00 0.00 90 1014.4
20260507021404 4 80 0.0 0.0 0.00 0.00 0.00 90 1014.4
20260507020904 4 80 0.0 0.0 0.00 0.00 0.00 90 1014.3
20260507020403 4 79 0.0 0.0 0.00 0.00 0.00 90 1014.3
20260507015904 4 80 0.0 0.0 0.00 0.00 0.00 89 1014.3
20260507015404 4 80 0.0 0.0 0.00 0.00 0.00 89 1014.3
20260507014904 4 80 0.0 0.0 0.00 0.00 0.00 90 1014.3
20260507014403 4 80 0.0 0.0 0.00 0.00 0.00 90 1014.3
20260507013404 4 80 0.0 0.0 0.00 0.00 0.00 89 1014.2
20260507012903 5 80 0.0 0.0 0.00 0.00 0.00 88 1014.2
20260507012404 5 80 0.0 0.0 0.00 0.00 0.00 89 1014.2
20260507011903 5 80 0.0 0.0 0.00 0.00 0.00 89 1014.3
20260507011404 5 80 0.0 0.0 0.00 0.00 0.00 88 1014.4
20260507010904 5 80 0.0 0.0 0.00 0.00 0.00 88 1014.4
20260507010404 5 80 0.0 0.0 0.00 0.00 0.00 88 1014.4
20260507005903 5 80 0.0 0.0 0.00 0.00 0.00 88 1014.4